www.pogodaiklimat.ru
ПОГОДА в Таке
Время
(UTC), дата
00 11.01
03 11.01
06 11.01
09 11.01
12 11.01
15 11.01
18 11.01
21 11.01
00 12.01
03 12.01
06 12.01
09 12.01
12 12.01
15 12.01
18 12.01
21 12.01
00 13.01
03 13.01
06 13.01
09 13.01
12 13.01
15 13.01
18 13.01
21 13.01
00 14.01
03 14.01
06 14.01
09 14.01
12 14.01
15 14.01
18 14.01
21 14.01
00 15.01
03 15.01
06 15.01
09 15.01
12 15.01
15 15.01
18 15.01
21 15.01
00 16.01
03 16.01
06 16.01
09 16.01
12 16.01
15 16.01
18 16.01
21 16.01
00 17.01
03 17.01
06 17.01
09 17.01
12 17.01
15 17.01
18 17.01
Ветер
(напр.,м/с)
Видим. Явления Облачность Т
(С)
Тd
(С)
f
(%)
Тe
(С)
Тes
(С)
Комфортность P
(гПа)
Po
(гПа)
Тmin
(С)
Tmax
(С)
R
(мм)
R24
(мм)
S
(см)
штиль 0 7000 м дымка ясно +16.9 +15.3 90 +17 +17 1015.6 1000.6 +16.5
В 2 7000 м мгла 4/0
[Ac und Cs]
+24.9 +16.1 58 +28 +35 жарко 1017.1 1002.5
В 5 7000 м мгла 3/0
[Ac und Cs]
+29.5 +15.1 42 +32 +38 душно 1014.3 1000.0
В 4 6000 м мгла 3/0
[Ac und Cs]
+29.9 +15.3 41 +32 +34 жарко 1011.9 997.6
В 2 6000 м мгла 4/0
[Ac und Cs]
+26.2 +16.3 54 +30 +30 душно 1013.3 998.8 +31.1
штиль 0 6000 м мгла 8/3 600 м
[Sc Ac As Cs]
+24.5 +16.1 59 +28 +28 душно 1015.7 1001.0
ЮВ 4 6000 м мгла 8/3 600 м
[Sc Ac lent Cs]
+24.5 +15.6 58 +28 +28 душно 1016.7 1002.1
В 2 6000 м дымка 3/3 600 м
[Sc Cs]
+21.1 +14.4 66 +24 +24 комфорт 1016.2 1001.4
штиль 0 6000 м дымка 6/3 600 м
[Sc Ac trans Cs]
+19.3 +12.5 65 +20 +20 1018.7 1003.8 +19.2
В 2 7000 м мгла 10/3 600 м
[Sc As op]
+21.0 +11.0 53 +24 +25 комфорт 1021.4 1006.5
В 4 7000 м мгла 10/4 600 м
[Sc As op]
+22.4 +9.9 45 +24 +25 комфорт 1019.1 1004.3
СВ 5 6000 м мгла 8/3 600 м
[Sc Ac As Cs]
+23.5 +10.9 45 +25 +26 комфорт 1015.9 1001.2
С 3 6000 м мгла 8/3 600 м
[Sc Ac As Cs]
+20.1 +12.9 63 +22 +22 комфорт 1016.9 1002.0 +24.9
штиль 0 6000 м дымка 3/0
[Ac und Cs]
+17.7 +12.7 73 +18 +18 1018.7 1003.7
С 2 6000 м дымка 3/0
[As trans Cs]
+16.0 +12.2 78 +16 +16 1018.7 1003.6
СЗ 2 6000 м дымка 3/0
[As trans Cs]
+15.7 +11.6 77 +16 +16 1017.6 1002.5
З 2 6000 м дымка 6/0
[Ac trans Cs]
+15.9 +11.2 74 +16 +16 1018.3 1003.2 +14.9
В 2 5000 м мгла 3/0
[Cs]
+21.0 +10.5 51 +24 +32 комфорт 1019.5 1004.7
ЮВ 2 6000 м мгла 3/0
[Cs]
+25.6 +12.4 44 +27 +40 жарко 1015.7 1001.1
ЮВ 2 6000 м мгла 3/0
[Cs]
+27.0 +12.6 41 +29 +32 жарко 1012.8 998.3
штиль 0 6000 м мгла 3/0
[Cs]
+22.5 +14.9 62 +26 +26 жарко 1013.4 998.7 +27.3
штиль 0 6000 м дымка 3/0
[Cs]
+19.0 +13.8 72 +20 +20 1015.1 1000.2
штиль 0 6000 м дымка 3/0
[Cs]
+16.2 +13.3 83 +16 +16 1015.2 1000.2
штиль 0 6000 м дымка 3/0
[Cs]
+15.5 +12.8 84 +15 +15 1014.5 999.4
штиль 0 6000 м дымка 3/0
[Cs]
+14.0 +12.1 88 +14 +14 1015.7 1000.6 +13.6
З 4 5000 м мгла 3/0
[Cs]
+21.8 +12.7 56 +24 +30 комфорт 1017.2 1002.4
СЗ 2 5000 м мгла 3/0
[Cs]
+28.0 +14.8 44 +30 +43 жарко 1013.2 998.7
СВ 3 5000 м мгла 3/0
[Cs]
+30.0 +13.5 36 +31 +34 жарко 1010.2 995.9
штиль 0 4000 м мгла 3/0
[Cs]
+24.6 +16.1 59 +28 +28 душно 1011.1 996.5 +30.6
штиль 0 5000 м дымка 3/0
[Cs]
+21.1 +15.9 72 +24 +24 комфорт 1013.1 998.3
штиль 0 5000 м дымка 3/0
[Cs]
+17.9 +15.5 86 +18 +18 1012.9 998.0
штиль 0 5000 м дымка 3/0
[Cs]
+15.9 +14.3 90 +16 +16 1011.4 996.4
штиль 0 3000 м дымка 3/0
[Cs]
+14.9 +13.3 90 +15 +15 1012.7 997.6 +14.5
штиль 0 5000 м мгла 4/0
[Cs]
+22.6 +14.8 61 +26 +37 жарко 1014.0 999.3
ЮВ 2 6000 м мгла 6/0
[Ac lent Cs]
+30.2 +14.4 38 +32 +42 жарко 1010.4 996.1
Ю 3 6000 м мгла 6/0
[Ac lent Cs]
+31.1 +14.1 36 +33 +35 душно 1007.5 993.3
штиль 0 5000 м мгла 6/0
[Ac lent Cs]
+26.0 +17.2 58 +30 +30 душно 1008.9 994.4 +32.6
штиль 0 5000 м дымка 3/0
[Cs]
+21.4 +16.6 74 +25 +25 комфорт 1011.1 996.4
штиль 0 5000 м дымка 3/0
[Cs]
+20.8 +17.5 81 +24 +24 комфорт 1011.0 996.3
штиль 0 5000 м дымка 3/0
[Cs]
+18.6 +16.9 90 +19 +19 1010.3 995.5
СЗ 3 6000 м дымка 3/0
[Cs]
+16.6 +14.1 85 +16 +16 1012.1 997.2 +16.2
В 2 6000 м мгла 3/0
[Cs]
+25.8 +15.4 53 +29 +37 душно 1013.1 998.6
ЮЗ 4 6000 м мгла 3/3 600 м
[Cu hum Cs]
+31.6 +16.1 39 +34 +41 душно 1009.7 995.5
Ю 2 6000 м мгла 3/3 600 м
[Cu hum Cs]
+32.9 +16.7 38 +36 +39 очень
душно
1007.1 993.0
штиль 0 6000 м мгла 3/1 600 м
[Cu hum Cs]
+27.9 +18.4 56 +33 +33 очень
душно
1008.6 994.2 +33.6
штиль 0 5000 м дымка 3/0
[Cs]
+23.4 +17.8 71 +29 +29 душно 1010.7 996.0
штиль 0 5000 м дымка 3/0
[Cs]
+20.8 +17.5 81 +24 +24 комфорт 1011.6 996.8
штиль 0 5000 м дымка 3/0
[Cs]
+18.7 +17.0 90 +20 +20 1011.9 997.1
штиль 0 5000 м дымка 3/0
[Cs]
+17.2 +15.8 91 +17 +17 1014.9 999.9 +17.0
штиль 0 4000 м мгла 3/0
[Cs]
+24.8 +17.1 62 +29 +40 душно 1016.9 1002.3
ЮВ 3 4000 м мгла 6/4 600 м
[Sc Cs]
+30.0 +18.4 50 +35 +41 очень
душно
1013.9 999.6
Ю 4 4000 м мгла 4/3 600 м
[Sc Cs]
+31.3 +17.5 44 +35 +37 очень
душно
1011.6 997.3
штиль 0 4000 м мгла 4/3 600 м
[Sc Cs]
+26.6 +18.6 62 +32 +32 очень
душно
1012.7 998.2 +31.9
штиль 0 3000 м дымка 3/3 600 м
[Sc Cs]
+22.8 +17.5 72 +28 +28 душно 1015.5 1000.8
штиль 0 3000 м дымка 8/5 600 м
[Sc Cs]
+22.5 +17.5 73 +27 +27 душно 1015.9 1001.2
Местоположение метеостанции Так (Таиланд): широта 16.88 долгота 99.15 высота над уровнем моря 124 м.
В архиве по умолчанию представлена погода в Таке за последнюю неделю. Архивные данные за месяц целиком и за предыдущие месяцы, начиная с января 2011 года, Вы можете получить, выбрав интересующий диапазон дат из раскрывающегося списка и нажав кнопку "Найти!".
*Определитесь, кто Вы:
Внимание! Время в таблицах - всемирное. Для получения местного времени необходимо прибавить поправку, которая равна 7 ч.
Смотрите также архив погоды в соседних городах и на ближайших метеорологических станциях:
Партнеры нашего сайта:
Запчасти Hyundai solaris 2018
электросхемы Hyundai. Низкие цены. Доставка почтой
autodoc.ru

     
Пояснения к столбцам:
  • Ветер - указаны скорость ветра в м/с - средняя за 10 мин, порывы в срок и между сроками (в фигурных скобках) и направление, откуда дует ветер: С - северный,
  • СВ - северо-восточный, В - восточный, ЮВ - юго-восточный, Ю - южный, ЮЗ - юго-западный, З - западный, СЗ - северо-западный.
  • Видимость - горизонтальная дальность видимости в метрах или километрах. При видимости от 1 до 10 км при отсутствии осадков обычно наблюдается дымка, при ухудшении видимости до 1 км и менее - туман. В сухую погоду видимость может ухудшаться дымом, пылью или мглою.
  • Явления - указаны атмосферные явления, наблюдавшиеся в срок или в последний час перед сроком; фигурными скобками обозначены явления, наблюдавшиеся между сроками (за 1-3 часа до срока); квадратными скобками обозначены град или гололедные отложения с указанием их диаметра в мм.
  • Облачность - указаны через наклонную черту общая и нижняя облачность в баллах и высота нижней границы облаков в метрах; квадратными скобками обозначены формы облаков: Ci - перистые, Cs - перисто-слоистые, Cc - перисто-кучевые, Ac - высококучевые, As - высокослоистые, Sc - слоисто-кучевые, Ns - слоисто-дождевые, Cu - кучевые, Cb - кучево-дождевые. Подробнее классификацию облаков см. в Атласе облаков (PDF).
  • T - Температура воздуха - температура, измеренная на высоте 2 м над землей.
  • Td - Температура точки росы - температура, при понижении до которой содержащийся в воздухе водяной пар достигнет насыщения.
  • f - Относительная влажность воздуха - влажноcть воздуха, измеренная на высоте 2 м над землей.
  • Te - Эффективная температура - температура, которую ощущает одетый по сезону человек в тени. Характеристика душности погоды. При расчете учитывается влияние влажности воздуха и скорости ветра на теплоощущения человека.
  • Tes - Эффективная температура на солнце - температура, которую ощущает человек, с поправкой на солнечный нагрев. Характеристика знойности погоды. Зависит от высоты солнца над горизонтом, облачности и скорости ветра. Ночью, в пасмурную погоду, а также при ветре 12 м/с и более поправка равна нулю.
  • P - Атмосферное давление - приведенное к уровню моря атмосферное давление.
  • Po - Атмосферное давление - измеренное на уровне метеостанции атмосферное давление.
  • Tmin - Минимальная температура - минимум температуры воздуха на высоте 2 м над землей.
  • Tmax - Максимальная температура - максимум температуры воздуха на высоте 2 м над землей.
  • R - Количество осадков - Количество выпавших осадков за период времени, мм. При наведении курсора мыши на число - период времени, за который выпало указанное количество осадков.
  • R24 - Количество осадков - Количество выпавших осадков за 24 часа, мм.
  • S - Снежный покров - Высота снежного покрова, см. При наведении курсора мыши на число - состояние снежного покрова и степень покрытия местности в баллах.